Regional Weather Roundup
Issued by NWS

Home | Current Version | Previous Version | Text Only | Print | Product List | Glossary Off
Versions: 1 2 3 4 5 6 7 8 9 10 11 12 13 14 15 16 17 18 19 20 21 22 23 24 25 26 27 28 29 30 31 32 33 34 35 36 37 38 39 40 41 42 43 44 45 46 47 48 49 50

000
ASUS43 KTOP 251208
RWRKS

WEATHER ROUNDUP FOR KANSAS
NATIONAL WEATHER SERVICE GOODLAND KS
700 AM CDT SAT APR 25 2015

NOTE:  "FAIR" INDICATES FEW OR NO CLOUDS BELOW 12,000 FEET WITH NO
SIGNIFICANT WEATHER AND/OR OBSTRUCTIONS TO VISIBILITY.

KSZ001>006-013>018-027>032-041>047-251300-
NORTHWEST KANSAS

CITY           SKY/WX    TMP DP  RH WIND       PRES   REMARKS
GOODLAND       PTCLDY    45  40  82 W10       29.65R
6HR MIN TEMP:  44; 6HR MAX TEMP:  51;

HAYS           PTCLDY    52  43  71 NW8       29.55R
HILL CITY      MOCLDY    51  47  86 NW12      29.57R
6HR MIN TEMP:  50; 6HR MAX TEMP:  57; 6HR PCP:  0.06;

RUSSELL        PTCLDY    53  49  86 W14       29.51R
6HR MIN TEMP:  50; 6HR MAX TEMP:  56; 6HR PCP:  0.04;

$$

KSZ061>065-074>080-084>089-251300-
SOUTHWEST KANSAS

CITY           SKY/WX    TMP DP  RH WIND       PRES   REMARKS
DODGE CITY     PTCLDY    51  42  71 W14       29.60R
6HR MIN TEMP:  48; 6HR MAX TEMP:  55;

ELKHART          N/A     48  31  52 W13         N/A
GARDEN CITY    FAIR      48  41  76 W10       29.62R
6HR MIN TEMP:  46; 6HR MAX TEMP:  53;

GREAT BEND     PTCLDY    52  46  82 NW8       29.54R
LIBERAL        CLEAR     45  37  76 W6        29.69R
$$

KSZ066>073-081>083-090>101-251300-
SOUTHEAST KANSAS

CITY           SKY/WX    TMP DP  RH WIND       PRES   REMARKS
CHANUTE        MOCLDY    61  55  81 W14       29.44S
6HR MIN TEMP:  60; 6HR MAX TEMP:  62; 6HR PCP: TRACE;

COFFEYVILLE    CLEAR     61  54  77 W14       29.49R
6HR MIN TEMP:  60; 6HR MAX TEMP:  62;

HUTCHINSON     MOCLDY    56  50  80 W13       29.50R
6HR MIN TEMP:  55; 6HR MAX TEMP:  58; 6HR PCP: TRACE;

MEDICINE LODGE   N/A     54  48  80 W9        29.56R
NEWTON         PTCLDY    54  48  82 W7        29.50R
PARSONS        PTCLDY    60  55  83 SW13      29.48R
6HR MIN TEMP:  60; 6HR MAX TEMP:  63; 6HR PCP: TRACE;

WICHITA INTL   MOCLDY    56  52  86 W13       29.51R
6HR MIN TEMP:  54; 6HR MAX TEMP:  64; 6HR PCP: TRACE;

WICHITA JABRA  PTCLDY    55  52  89 W12       29.49R
6HR MIN TEMP:  54; 6HR MAX TEMP:  63; 6HR PCP:  0.01;

WICHITA MCCONL PTCLDY    56  52  87 SW8       29.51R
WINFIELD       CLEAR     55  52  89 SW10      29.53R
6HR MIN TEMP:  54; 6HR MAX TEMP:  63;

$$

KSZ007>012-019>026-033>040-048>060-102>105-251300-
NORTHEAST KANSAS

CITY           SKY/WX    TMP DP  RH WIND       PRES   REMARKS
CONCORDIA      CLOUDY    55  52  89 N8        29.45S
6HR MIN TEMP:  54; 6HR MAX TEMP:  56; 6HR PCP:  0.11;

EMPORIA        PTCLDY    54  53  97 W6        29.45R
6HR MIN TEMP:  54; 6HR MAX TEMP:  57; 6HR PCP:  0.38;

LAWRENCE       LGT RAIN  55  54  96 NW6       29.43F FOG
6HR MIN TEMP:  55; 6HR MAX TEMP:  60; 6HR PCP:  0.40;

MANHATTAN      LGT RAIN  56  54  93 W9        29.41F
6HR MIN TEMP:  55; 6HR MAX TEMP:  56; 6HR PCP:  0.18;

MARYSVILLE     LGT RAIN  54  54 100 N10       29.39R
OLATHE IND     CLOUDY    56  55  97 S9        29.42R
6HR MIN TEMP:  55; 6HR MAX TEMP:  58; 6HR PCP:  0.33;

OLATHE EXE     LGT RAIN  56  56 100 S8        29.40S FOG
6HR MIN TEMP:  55; 6HR MAX TEMP:  59; 6HR PCP:  0.10;

SALINA         CLOUDY    55  52  89 W5        29.47R
6HR MIN TEMP:  55; 6HR MAX TEMP:  58; 6HR PCP:  0.02;

TOPEKA BILLARD CLOUDY    57  55  93 S6        29.42F
6HR MIN TEMP:  56; 6HR MAX TEMP:  63; 6HR PCP:  0.50;

TOPEKA FORBES  CLOUDY    58  54  86 SW8       29.42F
6HR MIN TEMP:  57; 6HR MAX TEMP:  64; 6HR PCP:  0.43;

$$



USA.gov is the U.S. government's official web portal to all federal, state and local government web resources and services.